Location: Paimpol
(48.7798°N, 3.0488°W)
Time: 12:44:18
(UTC+01:00)

ARIANE 6 FM1 Upper Stage - Visible Passes

Search period start: 16 January 2026 00:00
Search period end: 26 January 2026 00:00
Orbit: 522 x 610 km, 62.0° (Epoch: 16 January)

Date Brightness Start Highest point End Pass type
(mag) Time Alt. Az. Time Alt. Az. Time Alt. Az.
16 Jan 4.8 06:15:02 17° SSE 06:15:02 17° SSE 06:16:02 10° SSE visible
20 Jan 4.8 20:11:51 10° S 20:12:52 16° S 20:12:52 16° S visible
21 Jan 4.0 20:11:39 10° SSW 20:13:51 27° S 20:13:51 27° S visible
22 Jan 3.2 20:11:36 10° SSW 20:14:44 46° S 20:14:44 46° S visible
23 Jan 4.7 18:35:58 10° SE 18:37:22 12° ESE 18:38:45 10° E visible
23 Jan 2.5 20:11:41 10° SW 20:15:32 77° S 20:15:32 77° S visible
24 Jan 4.4 18:34:44 10° SSE 18:37:21 17° ESE 18:39:56 10° ENE visible
24 Jan 2.6 20:11:53 10° SW 20:15:56 72° NW 20:16:14 68° N visible
25 Jan 4.0 18:34:06 10° S 18:37:22 23° ESE 18:40:36 10° ENE visible
25 Jan 3.1 20:12:11 10° WSW 20:16:09 52° NW 20:16:51 45° N visible
